Location: Newark
(43.4306°N, 0.3089°E)
Time: 03:28:26
(UTC+00:00)

S-56A Canister/Altair - Pass Details

Date: 19 August 2019
Orbit: 633 x 2499 km, 38.9° (Epoch: 13 October)

Event Time Altitude Azimuth Distance (km) Brightness Sun altitude
Rises 21:41:50 0° 229° (SW) 3,037 10.6 -25.4°
Enters shadow 21:42:26 - 227° (SW) 2,800 10.4 -25.5°
Reaches altitude 10° 21:44:29 10° 217° (SW) 2,038 - -25.7°
Maximum altitude 21:48:18 27° 158° (SSE) 1,200 - -26.1°
Drops below altitude 10° 21:52:13 10° 99° (E) 2,092 - -26.5°
Sets 21:54:59 0° 88° (E) 3,136 - -26.8°
